This demonstration page uses our WeatherBlox Daily Observations layout. Learn more.

Left ArrowRight Arrow

39.51506, -84.39828

Hourly Observations for June 25, 2016

Temp ( °F °C ) Dew Point ( °F °C ) Humidity (%) Winds ( mph kmh ) Pressure ( in mb ) Visibility ( mi km ) Precip ( " mm )
12:15 am 00:15 Clear 67 19.7 60 15.7 78 78 NNW 3 6 30.09 1019 7 11 N/A
12:35 am 00:35 Clear 67 19.5 59 15.2 76 76 N 3 6 30.09 1019 10 16 N/A
12:55 am 00:55 Clear 67 19.5 59 15 75 75 N 6 9 30.09 1019 10 16 N/A
1:15 am 01:15 Clear 67 19.5 59 15.1 76 76 N 5 7 30.09 1019 10 16 N/A
1:35 am 01:35 Clear 67 19.5 58 14.7 74 74 NNW 6 9 30.09 1019 10 16 N/A
1:55 am 01:55 Clear 65 18.1 56 13.6 75 75 N 5 7 30.09 1019 10 16 N/A
2:15 am 02:15 Clear 64 18 57 13.8 77 77 N 6 9 30.09 1019 10 16 N/A
2:35 am 02:35 Clear 63 17.2 56 13.4 78 78 N 3 6 30.09 1019 10 16 N/A
2:55 am 02:55 Clear 63 17.3 56 13.1 77 77 N N/A 30.09 1019 10 16 N/A
3:15 am 03:15 Clear 63 17.3 55 12.5 74 74 N N/A 30.09 1019 10 16 N/A
3:35 am 03:35 Clear 64 18 55 12.5 70 70 N N/A 30.09 1019 10 16 N/A
3:55 am 03:55 Clear 63 17.1 53 11.6 70 70 N N/A 30.09 1019 10 16 N/A
4:15 am 04:15 Clear 61 16 53 11.9 77 77 N N/A 30.12 1020 10 16 N/A
4:35 am 04:35 Clear 61 16 54 12 77 77 N N/A 30.12 1020 10 16 N/A
4:50 am 04:50 Clear 61 16 54 12 77 77 N N/A 30.12 1020 10 16 N/A
5:15 am 05:15 Clear 60 15.3 53 11.6 79 79 N N/A 30.12 1020 10 16 N/A
5:35 am 05:35 Clear 60 15.3 53 11.7 79 79 N 3 6 30.12 1020 10 16 N/A
5:55 am 05:55 Clear 60 15.3 53 11.6 79 79 N N/A 30.15 1021 10 16 N/A
6:15 am 06:15 Sunny 60 15.3 52 11.3 77 77 N N/A 30.15 1021 10 16 N/A
6:35 am 06:35 Sunny 60 15.3 53 11.6 79 79 N N/A 30.15 1021 10 16 N/A
6:55 am 06:55 Sunny 61 16.1 53 11.6 75 75 N N/A 30.15 1021 10 16 N/A
7:15 am 07:15 Sunny 62 16.6 54 12 74 74 N N/A 30.15 1021 10 16 N/A
7:35 am 07:35 Sunny 64 18 56 13.1 73 73 N N/A 30.12 1020 10 16 N/A
7:55 am 07:55 Sunny 67 19.5 56 13.3 68 68 N N/A 30.12 1020 10 16 N/A
8:15 am 08:15 Sunny 69 20.8 56 13.6 64 64 N N/A 30.12 1020 10 16 N/A
8:35 am 08:35 Sunny 69 20.8 54 12.2 58 58 N N/A 30.15 1021 10 16 N/A
8:55 am 08:55 Sunny 72 22.3 53 11.6 51 51 N N/A 30.15 1021 10 16 N/A
9:15 am 09:15 Sunny 74 23.6 54 12.3 49 49 NNE 3 6 30.15 1021 10 16 N/A
9:35 am 09:35 Sunny with Light Rain 74 23.6 54 12.2 49 49 NNE 3 6 30.15 1021 10 16 N/A
9:55 am 09:55 Sunny 74 23.6 53 11.5 47 47 N N/A 30.15 1021 10 16 N/A
10:15 am 10:15 Sunny 77 25.1 54 12.3 45 45 N N/A 30.15 1021 10 16 N/A
10:35 am 10:35 Sunny 77 25.2 53 11.5 42 42 N N/A 30.15 1021 10 16 N/A
10:55 am 10:55 Sunny 80 26.5 55 12.5 42 42 N N/A 30.15 1021 10 16 N/A
11:15 am 11:15 Sunny 80 26.5 54 12.1 41 41 N N/A 30.15 1021 10 16 N/A
11:35 am 11:35 Sunny 82 27.5 53 11.6 37 37 N 3 6 30.15 1021 10 16 N/A
11:55 am 11:55 Sunny 82 28 51 10.4 33 33 N N/A 30.15 1021 10 16 N/A
12:15 pm 12:15 Sunny 83 28.4 53 11.4 35 35 N 3 6 30.15 1021 10 16 N/A
12:35 pm 12:35 Sunny 83 28.6 53 11.5 35 35 SW 5 7 30.15 1021 10 16 N/A
12:55 pm 12:55 Sunny 83 28.6 52 11.1 34 34 N N/A 30.12 1020 10 16 N/A
1:15 pm 13:15 Sunny 85 29.7 53 11.8 33 33 WSW 6 9 30.09 1019 10 16 N/A
1:35 pm 13:35 Sunny 85 29.3 51 10.6 31 31 WSW 6 9 30.12 1020 10 16 N/A
1:55 pm 13:55 Sunny 87 30.8 54 12 31 31 W 3 6 30.09 1019 10 16 N/A
2:15 pm 14:15 Sunny 90 32.1 56 13.3 32 32 NNW 3 6 30.09 1019 10 16 N/A
2:35 pm 14:35 Sunny 90 32.1 53 11.8 29 29 N N/A 30.09 1019 10 16 N/A
2:55 pm 14:55 Sunny 90 32.1 53 11.9 29 29 N N/A 30.06 1018 10 16 N/A
3:15 pm 15:15 Sunny 90 32.1 56 13.3 32 32 WSW 6 9 30.06 1018 10 16 N/A
3:35 pm 15:35 Sunny 90 32.1 53 11.5 28 28 SSW 5 7 30.06 1018 10 16 N/A
3:55 pm 15:55 Sunny 90 32.1 51 10.8 27 27 SSW 7 11 30.06 1018 10 16 N/A
4:15 pm 16:15 Sunny 90 32.1 54 12 29 29 WSW 7 11 30.06 1018 10 16 N/A
4:35 pm 16:35 Sunny 90 32.1 51 10.3 26 26 N N/A 30.06 1018 10 16 N/A
4:55 pm 16:55 Sunny 90 32.1 51 10.8 27 27 N N/A 30.06 1018 10 16 N/A
5:15 pm 17:15 Sunny 90 32.1 53 11.5 28 28 N 5 7 30.06 1018 10 16 N/A
5:35 pm 17:35 Sunny 90 32.1 52 11.3 28 28 NNE 3 6 30.06 1018 10 16 N/A
5:55 pm 17:55 Sunny 90 32.1 53 11.6 28 28 ENE 6 9 30.06 1018 10 16 N/A
6:15 pm 18:15 Sunny 90 32.1 53 11.9 29 29 NNE 5 7 30.06 1018 10 16 N/A
6:35 pm 18:35 Sunny 90 32.1 54 12 29 29 N N/A 30.03 1017 10 16 N/A
7:15 pm 19:15 Sunny 90 32.1 54 12 29 29 E 5 7 30.03 1017 10 16 N/A
7:35 pm 19:35 Sunny 90 32.1 55 13 31 31 E 6 9 30.03 1017 10 16 N/A
7:55 pm 19:55 Sunny 89 31.6 56 13.4 33 33 E 7 11 30.03 1017 10 16 N/A
8:15 pm 20:15 Sunny 87 30.7 56 13.3 34 34 E 5 7 30.03 1017 10 16 N/A
8:35 pm 20:35 Sunny 83 28.6 55 12.6 37 37 SE 6 9 30.06 1018 10 16 N/A
8:55 pm 20:55 Sunny 83 28.6 55 12.6 37 37 ESE 3 6 30.06 1018 10 16 N/A
9:15 pm 21:15 Clear 82 28 56 13.5 41 41 ESE 3 6 30.06 1018 10 16 N/A
9:35 pm 21:35 Clear 76 24.3 63 17.4 65 65 N N/A 30.09 1019 10 16 N/A
9:55 pm 21:55 Clear 74 23.6 64 18 71 71 N N/A 30.09 1019 10 16 N/A
10:15 pm 22:15 Clear 74 23.6 65 18.3 72 72 N N/A 30.09 1019 10 16 N/A
10:35 pm 22:35 Clear 74 23.6 66 18.9 75 75 N N/A 30.09 1019 10 16 N/A
10:55 pm 22:55 Clear 72 22.3 64 18 77 77 N N/A 30.09 1019 10 16 N/A
11:15 pm 23:15 Clear 71 21.9 64 17.6 77 77 N N/A 30.09 1019 10 16 N/A
11:35 pm 23:35 Clear 71 21.5 63 17.2 77 77 N N/A 30.09 1019 10 16 N/A
11:55 pm 23:55 Clear 69 20.8 62 16.6 77 77 N N/A 30.09 1019 10 16 N/A

Powered by AerisWeather